Location: Alafon
(8.4500°N, 4.2333°E)
Time: 16:17:34
(UTC+00:00)

Transit 2A - Pass Details

Date: 07 August 2021
Orbit: 595 x 964 km, 66.7° (Epoch: 18 September)

Event Time Altitude Azimuth Distance (km) Brightness Sun altitude
Rises 03:20:33 0° 206° (SSW) 2,866 - -32.1°
Reaches altitude 10° 03:22:51 10° 209° (SSW) 1,939 - -31.6°
Maximum altitude 03:27:06 62° 290° (WNW) 667 - -30.6°
Exits shadow 03:29:59 20° 7° (N) 1,401 7.6 -29.9°
Drops below altitude 10° 03:31:21 10° 12° (NNE) 1,932 8.5 -29.6°
Sets 03:33:38 0° 15° (NNE) 2,854 9.5 -29.1°
